COSMOS 2596 [GLONASS-K1]

Last updated on Tue Sep 16 2025 00:02:08 GMT+0000 (Coordinated Universal Time)

1 65590U 25206B 25258.67527787 -.00000060 00000+0 00000+0 0 9996 2 65590 64.7952 324.5337 0011290 289.8774 200.0384 2.13158141 64
UTC large
Height (km)
Speed (km/s)
/
Latitude / Longitude
Inclination (degrees)
Orbital Period (minutes)
Azimuth
Elevation
Range (km)
Doppler Factor

Next 0 passes for location: London (51.5072 / 0.1276)

Sorry there are no passes over London.